Flag Weather past 2 weeks in Tromsø, Norway

Now
42 °F

Snow flurries. Light fog.


Feels Like: 36 °F
Forecast: 37 / 39 °F
Wind: 10 mph from Southwest

Location: Tromso / Langnes

Current Time: Nov 27, 2014 at 6:21:30 PM

Latest Report: Nov 27, 2014 at 5:00 PM


Visibility: 8 mi

Pressure: 29.88 "Hg

Humidity: 71%

Dew point: 33 °F

Location of TromsøLocation

Historic Weather in Tromsø — Graph

°F

Tromsø temperature yesterday

Maximum temperature yesterday: 42 °F (at 8:00 PM)
Minimum temperature yesterday: 40 °F (at 1:00 AM)
Average temperature yesterday: 41 °F

Past Weeks' High & Low Weather Summary

 TemperatureHumidityPressure
High43 °F (Nov 19, 7:00 AM)96% (Nov 16, 10:00 PM)30.52 "Hg (Nov 16, 10:00 PM)
Low18 °F (Nov 14, 11:00 PM)61% (Nov 27, 3:00 PM)29.77 "Hg (Nov 25, 4:00 PM)
Average33 °F85%30.20 "Hg
* Reported Nov 12 5:00 PM — Nov 27 5:00 PM, Tromsø, Weather by CustomWeather, © 2014

Note: Actual official high and low records may vary slightly from our data, if they occured in-between our weather recording intervals... More about our weather records

Advertising

Tromsø weather history for previous 24 hours

 ConditionsComfort  
Time TempWeatherWind HumidityBarometerVisibility
5:00 PM
Nov 27
42 °FSnow flurries. Light fog.10 mph71%29.88 "Hg8 mi
4:00 PM43 °FOvercast.10 mph62%29.88 "Hg31 mi
3:00 PM43 °FOvercast.9 mph61%29.86 "Hg31 mi
2:00 PM42 °FOvercast.7 mph65%29.87 "Hg31 mi
1:00 PM42 °FOvercast.2 mph63%29.89 "Hg31 mi
12:00 PM40 °FScattered clouds.3 mph71%29.91 "Hg31 mi
11:00 AM40 °FSunny.6 mph67%29.92 "Hg31 mi
10:00 AM39 °FSunny.5 mph73%29.93 "Hg31 mi
9:00 AM39 °FSunny.6 mph78%29.93 "Hg31 mi
8:00 AM38 °FSunny.5 mph85%29.94 "Hg31 mi
7:00 AM40 °FSunny.6 mph79%29.95 "Hg31 mi
6:00 AM40 °FSunny.7 mph79%29.97 "Hg31 mi
5:00 AM38 °FClear.6 mph89%29.98 "Hg31 mi
4:00 AM38 °FClear.2 mph88%30.00 "Hg31 mi
3:00 AM38 °FClear.5 mph91%30.02 "Hg25 mi
2:00 AM40 °FPassing clouds.6 mph89%30.05 "Hg28 mi
1:00 AM42 °FOvercast.5 mph81%30.08 "Hg31 mi
12:00 AM43 °FOvercast.8 mph83%30.08 "Hg31 mi
11:00 PM
Nov 26
41 °FOvercast.3 mph90%30.09 "Hg25 mi
10:00 PM42 °FOvercast.6 mph86%30.09 "Hg31 mi
9:00 PM42 °FOvercast.8 mph90%30.11 "Hg19 mi
8:00 PM42 °FRain showers. Low clouds.6 mph91%30.11 "Hg6 mi
7:00 PM42 °FRain showers. Overcast.7 mph92%30.11 "Hg18 mi
6:00 PM42 °FRain showers. Overcast.8 mph92%30.10 "Hg6 mi
Weather by CustomWeather, © 2014

See weather overviewHow to use our weather pages